Location: Acts Church of Fort Worth
(32.6786°N, 97.2668°W)
Time: 09:29:16
(UTC+00:00)

Atlas Centaur 2 - Pass Details

Date: 18 January 2026
Orbit: 456 x 1249 km, 30.4° (Epoch: 9 February)

Event Time Altitude Azimuth Distance (km) Brightness Sun altitude
Exits shadow 10:25:32 21° 101° (E) 1,624 4.2 -38.6°
Drops below altitude 10° 10:27:41 10° 91° (E) 2,380 5.3 -38.2°
Sets 10:30:37 0° 86° (E) 3,465 6.3 -37.5°
